{"data":{"norad_id":58090,"intl_designator":"2023-160R","name":"STARLINK-30590","alt_names":[],"object_type":"PAYLOAD","status":"ACTIVE","operator":null,"country":"US","launch_date":"2023-10-18","launch_site_code":"AFETR","launch_vehicle":null,"mission":null,"orbit_class":"UNKNOWN","rcs_meters":null,"size_class":null,"mass_kg":null,"dimensions":null,"purposes":["comms"],"wikipedia_slug":null,"has_3d_model":false,"image_url":null,"decayed_at":null,"tle_current":{"epoch":"2026-05-24T23:58:32.138112Z","epoch_age_seconds":71316,"freshness":"FRESH","line1":"1 58090U 23160R   26144.99898308 -.00001423  00000+0 -42217-4 0  9996","line2":"2 58090  43.0028  10.5501 0000953 269.9142  90.1601 15.27565211144576","mean_motion":15.27565211,"eccentricity":9.53e-5,"inclination_deg":43.0028,"raan_deg":10.5501,"arg_perigee_deg":269.9142,"mean_anomaly_deg":90.1601,"bstar":-4.2217e-5,"rev_number":14457,"period_min":94.267661349614,"perigee_km":482.43950472803,"apogee_km":483.74725523845,"semimajor_km":6861.2303799832,"source":"CELESTRAK","updated_at":"2026-05-25T13:38:18.524255Z"}}}